Location: Newark
(9.4667°S, 159.8167°E)
Time: 21:10:33
(UTC+00:00)

Courier 1B Rocket - Pass Details

Date: 24 November 2019
Orbit: 920 x 1202 km, 28.2° (Epoch: 09 December)

Event Time Altitude Azimuth Distance (km) Brightness Sun altitude
Rises 19:41:36 0° 234° (SW) 3,719 7.7 11.2°
Reaches altitude 10° 19:44:27 10° 228° (SW) 2,728 7.1 11.9°
Maximum altitude 19:50:43 47° 155° (SSE) 1,222 6.2 13.4°
Drops below altitude 10° 19:56:44 10° 82° (E) 2,611 8.6 14.8°
Sets 19:59:24 0° 76° (ENE) 3,545 9.0 15.4°
